Temp
-5 -5 -5 -5 -5 -5 -5 -5 -5 -4 -3 -3 -3 -3 -2 -2 -2 -2 -2 -3 -3 -4 -5 -5 -5 -5 -5 -5 -6 -7 -8 -8 -8 -9 -6 -5 -5 -5 -5 -5 -5 -5 -5 -5 -6
-5 -5 -5 -5 -5 -5 -5 -5 -5 -4 -4 -3 -3 -3 -3 -2 -2 -2 -3 -3 -3 -4 -5 -5 -5 -6 -8 -6 -7 -8 -8 -7 -9 -8 -8 -6 -5 -5 -5 -5 -5 -5 -5 -5 -5
-5 -5 -5 -5 -5 -5 -5 -5 -5 -4 -4 -4 -4 -3 -3 -3 -3 -3 -3 -3 -3 -5 -5 -5 -5 -6 -8 -8 -8 -8 -6 -8 -6 -7 -7 -7 -7 -5 -7 -6 -5 -5 -5 -5 -5
-5 -5 -5 -5 -5 -5 -5 -5 -5 -5 -4 -4 -4 -3 -3 -3 -3 -3 -3 -3 -4 -5 -5 -5 -6 -8 -8 -8 -8 -8 -6 -6 -6 -6 -6 -8 -6 -9 -6 -6 -6 -6 -6 -5 -5
-6 -5 -5 -5 -5 -5 -5 -5 -5 -5 -5 -4 -4 -4 -3 -3 -3 -3 -3 -3 -4 -4 -4 -4 -6 -8 -7 -8 -8 -8 -6 -7 -6 -6 -7 -6 -6 -7 -8 -6 -6 -6 -6 -6 -6
-6 -6 -5 -5 -5 -5 -5 -5 -5 -5 -5 -4 -4 -3 -4 -3 -4 -3 -3 -3 -4 -4 -4 -4 -5 -5 -8 -8 -8 -6 -6 -9 -8 -7 -7 -7 -8 -7 -8 -6 -6 -6 -7 -6 -6
-7 -6 -6 -5 -5 -5 -5 -5 -5 -5 -5 -4 -4 -4 -4 -4 -4 -3 -3 -4 -4 -4 -4 -4 -4 -5 -7 -8 -6 -6 -8 -8 -8 -7 -7 -7 -8 -9 -8 -7 -6 -6 -6 -6 -7
-7 -6 -6 -6 -5 -5 -5 -5 -5 -5 -5 -4 -4 -4 -4 -4 -4 -4 -4 -4 -4 -4 -4 -5 -4 -5 -7 -7 -7 -8 -8 -7 -7 -7 -7 -7 -8 -8 -7 -8 -7 -6 -6 -6 -7
-6 -7 -6 -6 -6 -5 -5 -5 -5 -5 -5 -5 -4 -5 -5 -5 -4 -4 -4 -4 -4 -4 -5 -5 -5 -7 -7 -8 -7 -7 -7 -8 -8 -7 -8 -8 -8 -8 -8 -8 -8 -7 -6 -7 -7
-6 -6 -6 -6 -6 -6 -5 -5 -5 -5 -5 -5 -5 -5 -5 -5 -4 -4 -4 -4 -5 -5 -5 -5 -6 -9 -8 -7 -7 -7 -7 -8 -8 -8 -7 -8 -8 -8 -8 -8 -8 -8 -7 -7 -7
-7 -6 -6 -6 -6 -6 -6 -6 -6 -6 -5 -6 -5 -5 -5 -5 -5 -5 -5 -5 -5 -5 -5 -5 -9 -7 -8 -7 -7 -8 -8 -8 -8 -8 -6 -6 -8 -8 -8 -8 -8 -7 -7 -6 -6
-7 -7 -7 -6 -6 -6 -6 -6 -5 -5 -5 -5 -5 -5 -5 -5 -5 -5 -5 -5 -5 -5 -5 -8 -8 -8 -6 -6 -6 -8 -8 -7 -8 -7 -6 -6 -7 -6 -6 -7 -7 -7 -7 -7 -6
-7 -7 -7 -7 -6 -6 -6 -6 -6 -6 -6 -6 -6 -5 -5 -5 -5 -5 -5 -5 -5 -5 -7 -8 -8 -6 -6 -7 -8 -8 -7 -8 -6 -6 -7 -7 -7 -7 -6 -7 -7 -7 -7 -6 -6
-8 -7 -7 -7 -7 -6 -6 -6 -6 -6 -6 -6 -6 -6 -5 -5 -5 -5 -6 -6 -5 -6 -8 -7 -8 -6 -6 -8 -8 -8 -8 -6 -6 -8 -7 -7 -7 -8 -6 -7 -7 -7 -7 -7 -6
-8 -7 -7 -7 -7 -6 -6 -6 -6 -6 -8 -6 -6 -6 -5 -5 -6 -6 -6 -6 -6 -5 -6 -6 -6 -6 -6 -8 -8 -8 -7 -6 -6 -7 -7 -7 -7 -7 -7 -7 -8 -8 -7 -8 -9
-8 -8 -7 -7 -7 -7 -7 -7 -7 -7 -8 -6 -6 -6 -6 -6 -6 -6 -6 -6 -6 -6 -6 -5 -6 -6 -7 -9 -7 -7 -7 -6 -7 -7 -6 -6 -7 -7 -6 -7 -8 -8 -8 -8 -8
-8 -8 -7 -7 -7 -7 -7 -7 -7 -8 -7 -6 -6 -6 -6 -6 -6 -6 -6 -6 -6 -6 -6 -6 -6 -6 -6 -6 -7 -7 -8 -7 -6 -6 -7 -7 -6 -7 -7 -7 -7 -8 -8 -8 -8
-8 -8 -8 -8 -7 -7 -7 -8 -8 -8 -7 -7 -6 -6 -6 -6 -6 -6 -6 -6 -6 -6 -8 -8 -8 -7 -8 -7 -8 -8 -7 -7 -6 -7 -7 -7 -7 -7 -7 -7 -7 -8 -7 -8 -8
-9 -8 -8 -8 -8 -8 -8 -8 -9 -9 -7 -7 -6 -7 -7 -6 -6 -6 -6 -6 -6 -6 -7 -7 -8 -7 -7 -7 -8 -8 -7 -7 -6 -6 -6 -6 -7 -7 -8 -8 -9 -9 -8 -7 -7
-9 -8 -8 -8 -8 -8 -8 -8 -9 -6 -7 -7 -7 -7 -8 -7 -7 -7 -6 -7 -8 -6 -7 -8 -8 -8 -7 -7 -7 -8 -8 -7 -7 -7 -6 -7 -7 -8 -8 -8 -9 -10 -8 -7 -7
-9 -9 -8 -8 -8 -8 -8 -8 -7 -7 -7 -7 -9 -8 -8 -7 -7 -7 -9 -8 -7 -7 -7 -8 -8 -8 -9 -8 -8 -8 -8 -8 -7 -7 -7 -7 -8 -8 -8 -7 -8 -8 -7 -8 -7
-9 -9 -8 -8 -8 -8 -8 -7 -7 -7 -7 -7 -7 -9 -9 -9 -7 -8 -9 -9 -7 -7 -7 -8 -8 -8 -8 -8 -8 -8 -8 -8 -7 -8 -7 -7 -7 -7 -8 -8 -7 -8 -7 -6 -7
-8 -8 -8 -8 -8 -8 -8 -7 -7 -8 -7 -7 -7 -8 -9 -9 -9 -9 -9 -8 -8 -8 -9 -9 -9 -8 -7 -8 -8 -8 -9 -8 -8 -8 -8 -8 -8 -9 -8 -7 -7 -7 -7 -7 -7
-9 -8 -8 -8 -8 -7 -8 -8 -8 -8 -7 -7 -8 -8 -8 -9 -9 -9 -9 -9 -9 -9 -9 -9 -9 -8 -8 -8 -8 -9 -9 -9 -9 -8 -8 -8 -8 -9 -10 -8 -6 -7 -7 -8 -7
-9 -9 -8 -8 -8 -8 -8 -8 -8 -7 -8 -8 -8 -9 -10 -9 -9 -9 -9 -9 -10 -10 -10 -10 -9 -9 -9 -8 -9 -9 -9 -9 -9 -9 -9 -9 -9 -9 -8 -6 -7 -7 -7 -7 -7
-9 -9 -8 -8 -8 -8 -8 -7 -8 -9 -8 -8 -9 -10 -10 -9 -9 -9 -10 -10 -10 -9 -10 -9 -10 -10 -9 -9 -10 -9 -8 -8 -8 -9 -9 -8 -8 -8 -6 -7 -7 -7 -8 -8 -8
-9 -9 -9 -8 -8 -8 -8 -8 -8 -8 -8 -8 -9 -9 -10 -9 -9 -10 -10 -10 -10 -9 -9 -9 -9 -10 -10 -10 -9 -9 -8 -7 -7 -8 -8 -8 -9 -7 -7 -7 -8 -8 -8 -8 -8
Height
5875 5877 5879 5882 5884 5887 5890 5892 5894 5896 5898 5899 5902 5904 5906 5908 5909 5910 5911 5913 5914 5915 5915 5916 5917 5918 5919 5920 5921 5923 5928 5925 5922 5916 5911 5911 5911 5911 5911 5909 5908 5907 5905 5904 5903
5872 5874 5877 5879 5882 5885 5887 5889 5891 5894 5895 5897 5899 5902 5904 5906 5908 5909 5911 5912 5913 5914 5915 5916 5917 5919 5924 5923 5924 5928 5922 5920 5921 5919 5913 5911 5912 5914 5914 5910 5908 5907 5906 5904 5903
5868 5871 5874 5877 5879 5882 5885 5887 5889 5892 5894 5895 5897 5899 5902 5904 5906 5908 5909 5911 5913 5914 5915 5916 5918 5920 5927 5928 5927 5925 5922 5921 5918 5916 5915 5914 5914 5915 5912 5910 5909 5908 5906 5905 5903
5864 5868 5871 5874 5877 5880 5882 5885 5887 5889 5891 5893 5895 5896 5899 5902 5906 5907 5908 5910 5912 5913 5914 5916 5918 5923 5930 5932 5925 5926 5922 5921 5919 5917 5916 5916 5915 5916 5913 5911 5910 5908 5906 5906 5905
5860 5864 5868 5872 5875 5878 5880 5883 5885 5887 5889 5891 5892 5894 5897 5900 5902 5904 5906 5909 5910 5912 5914 5916 5918 5922 5930 5928 5926 5926 5923 5922 5921 5920 5919 5917 5916 5914 5914 5912 5910 5909 5908 5907 5906
5856 5860 5864 5868 5872 5876 5879 5881 5883 5885 5887 5888 5889 5892 5894 5897 5900 5902 5905 5907 5909 5911 5914 5916 5917 5918 5923 5925 5926 5924 5923 5924 5923 5921 5920 5919 5918 5916 5915 5913 5912 5910 5909 5907 5907
5852 5856 5860 5865 5869 5873 5876 5879 5881 5883 5884 5885 5887 5889 5892 5896 5898 5901 5903 5906 5908 5910 5913 5915 5916 5917 5922 5925 5925 5923 5925 5928 5925 5922 5921 5922 5922 5920 5917 5914 5912 5911 5910 5909 5908
5849 5852 5856 5861 5865 5870 5874 5877 5879 5881 5882 5883 5885 5887 5890 5893 5896 5899 5902 5904 5907 5910 5913 5915 5917 5918 5919 5925 5925 5928 5928 5932 5926 5923 5921 5923 5927 5925 5918 5916 5913 5912 5911 5911 5909
5846 5849 5853 5858 5862 5867 5871 5874 5877 5879 5880 5881 5884 5886 5889 5892 5895 5898 5900 5903 5907 5910 5913 5916 5917 5919 5923 5927 5934 5932 5934 5930 5928 5924 5923 5922 5924 5924 5920 5918 5916 5913 5912 5912 5910
5843 5847 5850 5855 5860 5864 5868 5872 5875 5877 5879 5880 5882 5886 5889 5891 5894 5897 5901 5904 5907 5910 5913 5916 5917 5923 5929 5933 5933 5932 5936 5931 5928 5927 5922 5923 5924 5924 5924 5919 5918 5916 5913 5913 5912
5840 5844 5848 5852 5857 5862 5866 5870 5874 5876 5878 5880 5882 5885 5888 5891 5893 5897 5900 5904 5906 5909 5913 5916 5920 5929 5931 5926 5925 5927 5929 5930 5928 5924 5922 5921 5921 5922 5922 5922 5920 5918 5915 5915 5913
5838 5841 5845 5850 5855 5860 5864 5868 5872 5875 5877 5879 5881 5884 5887 5890 5894 5898 5901 5904 5907 5910 5913 5919 5920 5925 5924 5924 5923 5925 5928 5930 5925 5922 5921 5921 5921 5920 5919 5919 5919 5919 5918 5916 5916
5835 5839 5844 5848 5853 5858 5862 5867 5869 5872 5876 5879 5881 5884 5888 5892 5894 5898 5902 5904 5907 5910 5914 5917 5925 5920 5921 5922 5924 5929 5929 5923 5922 5921 5922 5923 5922 5921 5919 5919 5919 5919 5917 5917 5915
5834 5838 5842 5847 5853 5857 5861 5865 5868 5873 5877 5880 5882 5886 5889 5893 5896 5898 5902 5906 5908 5911 5915 5916 5920 5920 5919 5920 5924 5928 5922 5921 5920 5922 5929 5924 5919 5921 5920 5918 5918 5917 5916 5915 5914
5833 5837 5841 5846 5851 5856 5860 5864 5869 5873 5879 5881 5883 5886 5890 5893 5897 5900 5902 5905 5908 5910 5913 5916 5916 5917 5917 5919 5921 5921 5919 5919 5919 5920 5926 5927 5924 5917 5918 5918 5919 5917 5916 5915 5913
5833 5837 5841 5845 5850 5855 5859 5864 5870 5875 5876 5880 5884 5887 5891 5894 5897 5899 5902 5905 5908 5909 5911 5912 5914 5914 5915 5917 5916 5917 5919 5918 5921 5922 5927 5926 5925 5909 5906 5915 5915 5915 5914 5913 5912
5833 5837 5840 5845 5849 5854 5859 5865 5872 5875 5879 5882 5884 5888 5891 5894 5897 5899 5902 5905 5907 5909 5910 5911 5912 5912 5912 5913 5915 5917 5919 5925 5927 5927 5922 5925 5925 5917 5916 5914 5914 5913 5911 5910 5910
5833 5837 5841 5845 5850 5854 5859 5866 5870 5874 5878 5881 5885 5888 5891 5894 5896 5899 5901 5903 5905 5907 5911 5913 5913 5910 5911 5912 5914 5921 5922 5924 5925 5923 5921 5923 5923 5920 5915 5915 5912 5911 5908 5908 5907
5833 5837 5841 5845 5850 5855 5860 5867 5877 5877 5877 5881 5885 5888 5891 5893 5896 5898 5900 5902 5903 5906 5910 5915 5914 5909 5909 5910 5912 5920 5919 5920 5921 5924 5923 5924 5920 5918 5912 5913 5909 5908 5903 5904 5903
5833 5837 5841 5846 5850 5855 5861 5862 5867 5870 5875 5881 5885 5887 5890 5891 5894 5896 5897 5900 5901 5902 5905 5910 5912 5908 5905 5907 5910 5911 5913 5920 5919 5919 5920 5914 5918 5916 5909 5910 5907 5903 5899 5898 5897
5833 5837 5841 5846 5850 5855 5860 5864 5867 5871 5875 5880 5885 5887 5892 5890 5892 5895 5899 5897 5898 5899 5901 5904 5909 5908 5906 5906 5911 5910 5912 5915 5918 5917 5918 5918 5910 5907 5907 5905 5904 5901 5892 5894 5889
5832 5836 5840 5845 5850 5854 5858 5860 5866 5870 5873 5878 5881 5887 5888 5890 5891 5896 5898 5896 5894 5896 5897 5899 5906 5909 5909 5906 5905 5906 5908 5910 5914 5914 5912 5911 5913 5901 5901 5897 5896 5893 5888 5887 5885
5829 5834 5838 5842 5848 5852 5855 5860 5864 5868 5871 5875 5879 5882 5886 5887 5889 5892 5893 5888 5890 5891 5893 5897 5899 5905 5907 5906 5900 5900 5903 5906 5908 5909 5909 5909 5909 5897 5890 5888 5888 5886 5883 5878 5880
5828 5832 5836 5840 5843 5847 5852 5857 5861 5865 5868 5872 5875 5878 5881 5884 5884 5885 5886 5886 5887 5887 5889 5890 5894 5900 5903 5895 5893 5896 5898 5898 5899 5902 5903 5904 5901 5897 5885 5877 5877 5877 5875 5872 5868
5824 5827 5832 5836 5841 5844 5848 5853 5857 5861 5865 5868 5871 5875 5879 5883 5884 5885 5886 5881 5883 5884 5886 5888 5891 5894 5895 5894 5890 5891 5893 5894 5893 5892 5889 5889 5886 5883 5876 5872 5870 5867 5866 5863 5858
5820 5824 5828 5832 5836 5840 5844 5850 5854 5857 5861 5864 5868 5871 5874 5880 5882 5881 5881 5880 5882 5878 5881 5882 5882 5883 5883 5885 5885 5885 5885 5884 5884 5883 5880 5878 5875 5868 5866 5865 5862 5859 5856 5852 5849
5816 5820 5824 5828 5833 5837 5841 5845 5849 5852 5856 5859 5863 5866 5868 5866 5870 5872 5873 5873 5873 5874 5875 5875 5877 5876 5877 5878 5877 5877 5877 5875 5876 5874 5871 5869 5866 5859 5858 5854 5852 5848 5845 5841 5838
Wind_Speed
22 21 21 22 22 22 21 18 16 15 15 17 18 16 15 11 9 6 3 3 3 4 5 5 5 7 6 4 7 6 3 1 1 7 8 7 7 8 7 6 5 3 4 4 5
23 21 21 21 21 20 20 18 17 15 15 16 19 18 17 13 11 8 5 2 2 4 5 4 3 1 5 8 9 3 0 0 4 2 5 7 9 10 13 8 5 3 2 3 3
24 23 21 21 20 19 18 17 17 15 14 15 17 19 18 15 14 9 6 4 4 6 6 4 5 7 3 8 5 4 2 3 1 4 4 7 7 5 7 5 6 5 3 3 3
23 24 22 21 20 19 18 17 17 15 14 14 16 17 18 18 17 12 9 7 8 11 9 9 10 8 6 1 4 5 2 0 3 4 2 4 4 6 6 6 7 6 6 6 6
26 24 24 22 21 20 17 16 17 16 15 15 16 16 15 16 17 13 11 8 14 14 13 14 13 15 3 6 2 6 4 4 2 3 1 0 4 6 6 6 7 6 6 7 9
26 25 25 25 23 21 18 15 16 16 16 16 17 16 15 16 17 15 13 14 17 16 15 14 13 14 10 6 7 5 6 4 5 3 3 4 5 8 9 9 8 7 8 10 12
22 26 25 25 25 23 20 16 15 15 15 17 17 16 15 13 16 15 14 18 16 16 16 13 16 18 13 3 8 10 8 3 4 5 2 13 12 10 7 11 12 10 9 11 15
18 22 24 25 24 23 21 18 15 14 15 16 16 15 14 17 17 15 19 18 17 15 13 15 17 19 18 12 12 5 15 2 15 7 7 6 3 10 12 10 14 14 12 14 12
20 21 23 25 24 22 22 20 16 14 15 15 14 13 16 17 18 19 19 20 18 16 16 20 19 17 12 10 5 9 2 2 6 4 5 5 6 11 10 10 11 15 17 18 17
22 21 23 25 24 22 22 21 16 14 14 14 13 14 17 18 18 20 18 18 18 17 20 20 18 6 3 3 5 12 4 6 6 8 5 5 7 7 5 14 7 12 18 21 18
22 22 23 25 24 23 22 21 17 15 15 14 14 14 16 20 21 21 21 19 20 20 19 16 11 5 13 14 16 5 3 9 8 10 5 4 5 6 7 9 6 8 16 21 15
21 22 23 25 24 23 23 20 13 13 17 17 17 18 20 22 21 21 21 20 20 19 18 10 11 13 14 7 3 2 6 8 9 4 3 4 5 5 8 4 3 8 12 16 12
19 22 24 25 24 23 22 19 20 20 19 18 19 20 21 21 22 21 19 20 18 17 13 15 5 11 8 3 4 8 11 9 3 6 14 4 5 6 7 6 6 8 11 12 12
19 22 24 24 24 23 21 21 22 21 19 19 20 21 21 21 21 22 20 19 17 15 13 9 15 9 6 3 4 2 20 6 3 3 1 3 7 3 8 14 12 14 16 12 11
20 22 23 23 23 23 23 24 23 22 17 21 22 22 22 22 22 18 17 15 16 12 11 10 8 8 5 5 10 9 4 1 2 2 1 2 12 7 4 4 7 9 11 12 12
20 22 22 23 24 25 25 25 26 24 14 23 22 20 19 18 16 16 15 13 12 12 10 9 8 8 6 9 7 3 2 13 10 2 3 9 3 11 11 12 11 11 15 16 15
21 22 22 23 25 27 27 28 27 13 18 22 21 19 18 16 15 15 14 13 11 9 7 8 7 10 7 7 4 1 5 6 4 5 11 3 2 13 5 13 17 12 16 16 18
21 22 24 25 26 28 29 30 26 15 17 21 20 18 16 15 14 14 13 11 10 9 4 9 14 10 8 7 8 10 5 6 7 7 9 6 3 15 22 18 18 15 18 17 19
21 23 25 26 26 28 30 28 8 14 21 19 17 16 15 15 14 14 13 13 12 10 8 9 10 17 12 8 7 3 5 9 7 7 7 9 7 12 10 10 10 10 20 19 23
22 24 26 26 26 28 30 28 28 24 22 18 13 14 13 14 13 12 14 13 14 13 14 10 8 9 10 7 8 15 10 4 8 8 7 6 7 14 19 22 15 15 23 23 24
24 24 26 26 27 28 28 25 21 20 19 17 13 12 11 12 11 11 12 14 15 14 13 10 9 10 10 7 7 5 6 7 9 8 9 9 13 19 24 31 24 20 30 26 32
25 26 26 27 26 26 27 25 21 20 18 16 14 10 11 14 13 10 12 15 16 16 13 12 9 10 12 19 19 19 13 9 8 13 11 13 20 32 32 33 22 25 31 28 28
27 26 27 28 27 26 28 20 21 18 18 17 15 13 12 12 14 14 14 20 16 14 14 12 11 7 14 17 13 18 18 17 14 15 17 17 18 33 40 38 26 25 28 33 29
26 27 27 28 29 28 28 24 22 22 20 17 18 14 14 14 13 14 15 15 15 18 15 17 13 14 14 25 19 10 14 16 18 18 18 20 22 25 32 42 31 30 32 34 37
27 28 29 28 28 28 29 27 25 22 21 20 17 14 12 11 11 12 15 19 21 22 22 22 17 16 21 21 20 21 19 23 24 24 27 26 28 32 40 37 36 37 36 37 41
29 27 28 28 29 29 27 24 22 22 20 19 18 18 21 15 18 15 19 21 19 27 27 27 25 26 29 27 24 27 35 35 34 30 29 31 32 37 37 34 38 39 40 41 43
29 30 29 28 27 26 26 25 25 26 23 23 20 20 22 31 23 25 23 24 25 27 27 29 27 27 26 25 27 30 28 31 30 27 31 31 32 40 38 41 41 43 43 44 44
Wind_Direction
225 224 224 222 222 225 228 229 228 227 223 222 223 221 223 218 219 224 212 206 190 201 246 284 314 329 348 47 77 54 99 134 185 4 337 341 339 349 347 330 359 23 29 21 23
223 223 222 221 219 219 222 222 220 220 219 220 223 223 225 221 223 225 229 226 165 202 225 244 268 336 28 75 81 30 214 109 70 323 6 345 340 6 7 335 9 15 9 344 338
223 222 222 218 217 215 216 218 217 214 213 217 223 225 226 225 227 220 218 218 144 170 203 201 168 136 140 117 120 150 75 32 300 317 349 346 356 42 43 9 30 25 15 355 5
223 221 220 217 214 212 213 216 216 212 209 214 222 226 227 222 224 220 214 207 151 167 186 169 142 101 132 171 160 302 175 211 327 307 7 31 0 45 74 47 41 25 20 18 28
222 221 219 216 212 210 212 215 214 214 215 220 226 229 229 221 214 214 217 183 165 175 173 171 155 131 187 181 115 147 148 57 22 309 134 144 55 32 47 51 42 30 18 20 16
218 219 218 216 214 213 212 214 214 217 222 227 230 232 228 217 209 209 207 168 173 174 171 169 164 154 159 164 153 154 83 60 346 351 45 35 34 21 343 13 42 47 45 32 33
218 215 216 215 216 215 213 212 215 217 223 228 232 231 225 197 202 202 188 171 176 172 164 163 150 138 120 86 91 81 52 357 310 354 46 62 13 351 344 351 2 33 28 34 38
216 211 211 210 212 212 212 212 216 218 224 228 230 226 211 194 196 188 172 172 170 167 161 157 147 126 118 121 56 51 43 69 286 345 358 88 6 311 320 343 350 7 22 25 27
213 211 210 206 205 207 209 211 215 218 223 224 225 212 194 187 188 181 178 170 165 160 153 150 136 124 123 64 321 11 303 283 322 329 334 343 197 281 318 327 342 357 27 26 21
212 210 207 202 200 203 204 207 212 216 216 213 208 195 186 185 178 180 169 163 155 154 153 147 125 104 68 92 229 234 152 301 323 278 275 286 295 297 314 310 331 344 5 25 15
209 208 204 198 197 200 200 201 204 204 198 198 194 186 182 177 174 172 166 161 154 157 153 149 138 115 205 215 201 237 289 294 295 292 278 282 269 286 276 247 282 332 1 22 33
206 203 198 194 194 196 196 199 201 204 194 191 186 181 175 171 168 166 165 161 156 155 152 181 138 213 193 203 192 300 312 331 295 326 345 351 299 252 230 215 289 317 328 356 12
200 194 191 190 189 190 189 189 191 187 184 184 180 176 171 167 163 166 164 159 157 159 165 172 211 204 200 206 342 6 280 279 268 85 14 8 328 321 246 247 277 295 310 330 352
187 185 185 185 184 183 181 185 183 180 175 177 175 170 167 166 167 163 166 164 165 162 192 193 200 215 230 224 256 34 262 265 171 23 135 257 310 226 290 281 273 285 309 322 329
181 181 182 180 180 180 180 178 175 169 160 177 175 171 173 174 168 175 174 175 168 173 185 195 197 219 248 213 245 218 271 231 72 116 314 33 263 158 343 233 282 288 302 310 304
179 180 181 181 180 177 175 174 171 165 190 175 174 175 174 175 182 178 181 186 188 189 202 209 219 238 234 236 233 257 110 30 1 22 209 243 262 170 164 259 268 290 292 289 277
179 179 179 176 175 172 172 170 161 154 181 177 177 178 181 186 187 190 193 193 201 216 235 255 257 253 240 213 230 308 46 333 255 298 289 246 182 288 297 279 266 269 273 281 275
180 179 176 174 172 171 171 168 158 201 174 182 183 185 192 198 204 204 206 212 224 222 222 264 281 295 252 245 202 265 227 256 248 222 239 274 240 237 261 280 259 260 268 265 268
179 177 175 174 174 174 173 168 185 172 187 187 190 196 205 209 214 216 218 223 235 222 159 235 241 265 252 249 186 208 193 264 207 285 251 225 288 305 253 298 289 274 266 264 268
181 179 177 176 177 177 177 174 198 187 184 183 192 201 210 220 221 223 233 235 234 233 214 222 227 271 264 261 227 180 223 238 209 238 253 291 324 243 260 282 288 287 281 277 271
185 184 181 182 182 183 185 206 194 193 192 190 183 206 206 218 205 210 232 235 229 239 223 205 201 261 271 245 232 267 245 246 256 234 266 280 285 272 270 273 281 281 284 276 287
190 190 189 187 189 190 195 203 195 200 203 203 208 198 191 213 188 206 209 232 228 231 229 216 205 248 282 241 227 205 220 251 251 282 279 293 276 280 287 284 285 278 282 285 283
194 194 197 196 197 202 211 206 206 212 217 218 214 201 193 203 205 204 212 242 241 234 212 217 228 240 256 277 292 263 250 259 252 259 271 283 297 288 288 288 283 289 286 290 285
195 199 201 205 209 207 213 215 215 218 223 222 221 220 211 206 209 224 234 230 233 233 239 243 236 231 254 262 241 231 255 262 261 262 267 264 266 285 281 288 301 297 292 289 290
197 200 202 206 211 214 218 218 218 221 221 221 223 215 207 219 233 244 233 246 240 242 245 250 254 245 249 251 268 244 250 253 272 277 272 272 268 265 271 288 295 292 291 289 288
203 202 203 208 211 215 219 221 217 218 214 215 213 207 201 209 217 231 236 240 262 251 247 247 250 247 242 241 257 270 259 262 270 276 277 278 283 278 285 290 287 289 290 289 288
203 205 206 208 213 216 220 218 214 217 208 209 204 216 219 221 227 231 247 238 249 258 254 257 251 254 257 260 256 263 277 261 269 274 273 278 279 285 291 290 292 293 291 288 287